Find Starlink 30245

NORAD ID: 57612 Int'l Des: 2023-119 Owner: SPXS Country: US Constellation: starlink operational
LEOCIRCULAR

实时位置

正在加载3D地球...

关于 Starlink 30245

正在加载描述...

即将过境

Passes for default location (London). Set your location on the main map for personalized predictions.

高度历史

Loading altitude history...

两行轨道根数

1 57612U 23119L 26126.05351458 .00006295 00000-0 23797-3 0 9998
2 57612 42.9989 117.2477 0001228 206.8962 153.1826 15.27593470151869
Epoch: May 6, 2026 • Age: 12 hours

当前状态

高度 481.6 km
速度 7.63 km/s
星下点 15.99°N, 141.94°W
发射日期 Aug 11, 2023
运行时间 2.7 years
类型 internet

技术详情

分类 Payload
质量 730.00 kg
干质量 700.00 kg
总质量 730.00 kg
长度 0.30 m
直径 4.10 m
跨度 29.00 m
形状 Box + pan
制造商 SPXS
平台类型 Starlink V2M
阶段状态 In Orbit
所有者/国家 SPXS/US

Most Searched